Regional Weather Roundup
Issued by NWS San Diego, CA

Home | Current Version | Previous Version | Text Only | Print | Product List | Glossary On
Versions: 1 2 3 4 5 6 7 8 9 10 11 12 13 14 15 16 17 18 19 20 21 22 23 24 25 26 27 28 29 30 31 32 33 34 35 36 37 38 39 40 41 42 43 44 45 46 47 48 49 50
000
ASUS46 KSGX 290711
RWRSGX

SAN DIEGO HOURLY WEATHER ROUNDUP
NATIONAL WEATHER SERVICE SAN DIEGO CA
1200 AM PDT WED JUL 29 2015

NOTE: "FAIR" INDICATES FEW OR NO CLOUDS BELOW 12,000 FEET WITH NO
SIGNIFICANT WEATHER AND/OR OBSTRUCTIONS TO VISIBILITY.

CAZ042-043-060-061-PZZ750-775-290800-

GREATER SAN DIEGO AREA

CITY           SKY/WX    TMP DP  RH WIND       PRES   REMARKS
LINDBERGH FLD  MOCLDY    70  63  78 SW5       29.94R
POINT LOMA       N/A     66  62  86 SW3         N/A
NATIONAL CITY    N/A     69  64  83 CALM      29.93S
CHULA VISTA      N/A     67  64  89 CALM      29.86R
IMPERIAL BEACH PTCLDY   N/A N/A N/A SW3       29.93S
BROWN FIELD    CLEAR     65  61  87 W5        29.93S
MIRAMAR MCAS   PTCLDY    68  60  75 CALM      29.93S
MONTGOMERY FLD PTCLDY    68  61  78 S3        29.93S

$$

NORTH SAN DIEGO COUNTY

CITY           SKY/WX    TMP DP  RH WIND       PRES   REMARKS
CAMP PENDLETON CLEAR     64  58  80 CALM      29.92S
OCEANSIDE AP   CLEAR     64  60  87 CALM      29.91S
OCEANSIDE HBR    N/A     68  65  89 S1        29.94S
VISTA            N/A     65  60  84 CALM      29.90S
CARLSBAD       CLEAR     67  62  84 CALM      29.91F
DEL MAR          N/A     65  63  93 CALM      29.94S
LA JOLLA SCRIP   N/A    N/A N/A N/A CALM      29.89F
FALLBROOK        N/A     65  65  99 CALM      29.92S
ESCONDIDO        N/A     67  62  84 CALM      29.93S
POWAY            N/A     65  60  84 CALM      29.92F

$$

EAST SAN DIEGO COUNTY

CITY           SKY/WX    TMP DP  RH WIND       PRES   REMARKS
RAMONA         CLEAR     63  59  87 CALM      29.95S
SANTEE LAKES     N/A     66  62  85 CALM      29.92R
LA MESA          N/A     65  62  89 CALM      29.86S
JAMUL            N/A     64  60  88 CALM      29.91S
DESCANSO N       N/A     72  51  48 CALM      29.77F
CAMPO            N/A     64  55  72 NE3       29.96S

$$

ORANGE COUNTY AND THE LOS ANGELES BASIN

CITY           SKY/WX    TMP DP  RH WIND       PRES   REMARKS
JOHN WAYNE AP  MOCLDY    69  64  84 S3        29.92R
LAKE FOREST FR   N/A     66  60  82 CALM      29.81S
SANTA ANA        N/A     71  64  79 CALM      29.87R
HUNTINGTON BCH   N/A     69  66  91 CALM      29.93S
LOS ALAMITOS   FAIR      69  66  93 S1        29.92R
FULLERTON      CLEAR     71  64  78 CALM      29.91R
LONG BEACH     CLEAR     71  65  81 NW6       29.92R
L.A. AP        MOCLDY    67  64  90 W8        29.93R
L.A. DOWNTOWN  CLOUDY    68  63  84 CALM      29.93R

$$

THE INLAND EMPIRE

CITY           SKY/WX    TMP DP  RH WIND       PRES   REMARKS
CORONA         CLEAR     68  63  84 CALM      29.93R
CHINO          CLEAR     71  63  75 NW6       29.94R
ONTARIO        CLEAR     69  62  78 W5        29.93R
RIVERSIDE AP   CLEAR     72  63  73 W5        29.94R
MORENO VALLEY    N/A     72  65  81 CALM      29.92R
MARCH ARB      CLEAR     72  62  71 NW6       29.95S
HORSETHIEF CYN   N/A     68  56  65 SW3       29.94R
PERRIS           N/A     71  62  72 CALM      29.95S
MENIFEE          N/A     71  63  75 S1        29.98R
HEMET EAST       N/A     72  56  57 CALM      29.93S
FRENCH VALLEY  FAIR      68  59  73 CALM      29.95S
TEMECULA         N/A     68  62  82 CALM      29.92R

$$

SAN BERNARDINO AND RIVERSIDE COUNTY MOUNTAINS

CITY           SKY/WX    TMP DP  RH WIND       PRES   REMARKS
BIG BEAR AP    CLEAR     50  32  50 CALM      30.31S
PINE COVE        N/A     68  39  34 CALM      29.88S

$$

SOUTHERN DESERT INCLUDING THE COACHELLA VALLEY

CITY           SKY/WX    TMP DP  RH WIND       PRES   REMARKS
PALM SPRINGS   CLEAR     90  58  33 NW6       29.84R
THOUSAND PALMS   N/A     90  58  33 W8        29.79R
PALM DESERT      N/A     89  61  38 NW3         N/A
THERMAL        CLEAR     87  62  43 N5        29.76R
BLYTHE         MOCLDY    98  63  31 S14       29.80R HX 100
IMPERIAL AP    CLEAR     95  58  28 S9        29.76S
EL CENTRO NAS  CLEAR     92  58  31 S8        29.78S
YUMA AZ        MOCLDY    91  67  44 S13       29.82R

$$

UPPER DESERT

CITY           SKY/WX    TMP DP  RH WIND       PRES   REMARKS
VICTORVILLE AP CLEAR     73  43  33 CALM      30.01R
HESPERIA         N/A     76  42  29 NW1       29.95S
APPLE VALLEY     N/A     77  41  27 CALM      30.04R
PALMDALE       CLEAR     75  48  38 S6        29.98R
LANCASTER      CLEAR     78  39  24 W13       29.96R
EDWARDS AFB    CLEAR     74  41  30 S7        29.94R
DAGGETT        CLEAR     86  21   9 W9        29.92R
29 PALMS N     CLEAR     82  41  23 NE3       30.00R
NEEDLES        PTCLDY    98  41  14 W12       29.82R

$$

REGIONAL REPORTS

CITY           SKY/WX    TMP DP  RH WIND       PRES   REMARKS
SANTA BARBARA  CLOUDY    64  61  90 SE8       29.90R FOG
SANDBERG       CLEAR     71  43  36 W13       30.12S
LAS VEGAS NV   CLEAR     90  31  12 W3        29.89R
PHOENIX AZ     CLOUDY    90  63  40 SE9G21    29.90R
TIJUANA        CLEAR     66  59  77 NW6       29.96R
ENSENADA NW      N/A     68  32  26 CALM      29.90S

$$

OFFSHORE ISLANDS

CITY           SKY/WX    TMP DP  RH WIND       PRES   REMARKS
CATALINA ARPT  CLEAR     61  59  93 SE5       29.97R
SAN NICOLAS IS CLOUDY   N/A N/A N/A CALM      29.94R

$$

MARINE AND OFFSHORE BUOY REPORTS

STATION/POSITION SKY/WX   TEMP    WIND        PRES    SWELL
                          AIR SEA DIR/SP/G            HT/PER/DIR
                          (F)     (DEG/KT/KT) (MB)    (FT/S/D)
TANNER BANKS               64 68  320/  8/ 10 1013.8R   5/330/ 9
S CLEMENTE BASIN           66 70  270/  4/  6 1013.1S   5/230/16
SAN NICOLAS IS.               66                N/A     3/210/17
SO. S. ROSA ISLA           62 67  320/ 14/ 17 1012.0R   5/16
W. S. BARBARA CH           59 60  310/ 17/ 19 1011.6R   5/250/16
M. S. BARBARA CH           62 67  230/ 12/ 14 1013.0R
S. MONICA BASIN            67 72   10/  2/  2 1013.2R   3/190/16
S PEDRO CHANNEL               72                N/A     2/250/17
DANA POINT                    72                N/A     3/200/15
OCEANSIDE OFFSHR              72                N/A     3/210/17
TORREY PINES OTR              72                N/A     3/220/15
LA JOLLA 1                 68 70  150/  2/  3 1013.0R
MISSION BAY BUOY              72                N/A     3/220/17
SAN DIEGO BAY                 74              1013.7R
POINT LOMA SOUTH              71                N/A     3/210/15

$$



USA.gov is the U.S. government's official web portal to all federal, state and local government web resources and services.